Temperature
16 16 15 15 15 15 14 14 14 14 13 13 13 13 12 12 12 12 12 12 11 11 11 11 11 11 11 11 11 11 11 11 11 11 11 11 11 11 11 11 11 11 11
16 16 15 15 15 15 14 14 14 13 13 13 13 12 12 12 12 11 11 11 11 11 11 11 11 11 11 11 11 10 10 10 11 11 10 10 10 10 11 11 11 10 10
16 15 15 15 14 14 14 14 13 13 13 13 13 12 12 12 11 11 11 11 11 11 11 11 11 11 11 10 10 10 10 10 10 10 10 10 10 10 10 10 10 10 10
15 15 15 14 14 14 14 13 13 13 13 13 12 12 12 12 11 11 11 11 11 11 10 10 10 10 10 10 10 10 10 10 10 10 9 10 10 10 10 10 10 10 10
15 14 14 14 14 13 13 13 13 13 12 12 12 12 12 11 11 11 11 11 11 10 10 10 10 10 10 10 10 10 10 9 9 9 9 9 9 9 9 10 9 9 10
14 14 14 13 13 13 13 13 12 12 12 12 11 11 11 11 11 11 11 11 10 10 10 10 10 10 10 10 9 9 9 9 9 9 9 9 9 9 9 9 9 9 9
14 14 13 13 13 13 12 12 12 12 12 11 11 11 11 11 11 11 10 10 10 10 10 10 10 10 9 9 9 9 9 9 9 9 9 9 9 9 9 9 9 9 9
13 13 13 13 13 12 12 12 11 11 11 11 11 11 11 11 11 10 10 10 10 10 10 9 9 9 9 9 9 9 8 8 8 8 8 8 8 8 8 8 8 9 9
13 13 13 12 12 12 12 11 11 11 11 11 10 10 10 10 10 10 10 10 9 9 9 9 9 9 9 9 8 8 8 8 8 8 8 8 8 8 8 8 8 8 8
13 12 12 12 12 12 12 11 11 10 10 10 10 10 10 10 10 10 9 9 9 9 9 9 9 8 8 8 8 8 8 8 8 8 8 8 8 8 8 8 8 8 8
12 12 12 11 11 11 11 11 10 10 10 10 10 10 10 10 10 9 9 9 9 8 8 8 8 8 8 8 8 7 7 7 7 7 7 7 7 7 7 7 7 7 7
11 11 11 11 11 10 10 10 10 10 10 9 9 9 9 9 9 9 9 8 8 8 8 8 8 8 7 7 7 7 7 7 7 7 6 6 6 7 7 7 7 7 7
11 11 10 10 10 10 10 10 10 9 9 9 9 9 9 9 8 8 8 8 8 8 8 7 7 7 7 7 7 6 6 6 6 6 6 6 6 6 6 6 6 7 7
10 10 10 10 10 9 9 9 9 9 9 9 8 8 8 8 8 8 8 8 8 7 7 7 7 6 6 6 6 6 6 6 6 5 5 6 6 6 6 6 6 6 6
10 10 10 9 9 9 9 8 8 8 9 8 8 8 8 8 8 8 8 7 7 7 7 6 6 6 6 6 6 5 5 5 5 5 5 5 5 5 5 5 5 5 5
9 9 9 9 9 9 8 8 8 8 8 8 8 8 8 8 8 7 7 7 7 7 6 6 6 5 5 5 5 5 5 4 4 5 5 4 5 5 5 5 4 5 5
9 9 8 8 8 8 8 8 7 7 7 7 7 7 7 7 7 7 7 7 6 6 6 5 5 5 5 5 4 4 4 4 4 4 4 4 4 4 4 4 4 4 4
8 8 8 8 8 7 7 7 7 7 7 7 6 7 7 7 7 6 6 6 6 5 5 5 5 4 4 4 4 4 4 3 3 3 3 3 3 3 3 3 3 3 3
7 8 7 7 7 7 7 7 7 6 6 6 6 6 6 6 6 6 5 5 5 5 5 4 4 4 4 4 4 3 3 3 3 3 3 3 3 3 3 3 2 2 2
7 7 7 7 7 6 6 6 6 6 6 5 5 5 5 5 5 5 5 5 4 4 4 4 4 3 3 3 3 3 3 2 2 2 2 2 2 2 2 2 2 2 2
6 6 6 6 6 6 6 6 5 5 5 5 5 5 5 5 4 4 4 4 4 4 3 3 3 3 3 3 2 2 2 2 2 2 2 2 2 2 2 2 2 2 2
6 6 6 6 5 5 5 5 5 5 5 4 4 4 4 4 4 4 4 4 3 3 3 3 3 2 2 2 2 2 2 2 2 2 2 2 2 2 2 1 1 1 1
5 5 5 5 5 5 4 4 4 4 4 4 4 3 3 3 3 3 3 3 3 3 2 2 2 2 2 2 1 1 1 2 2 1 1 1 1 1 1 1 1 1 1
5 5 4 4 4 4 4 4 4 3 3 3 3 3 3 3 3 2 2 2 2 2 2 2 1 1 1 1 1 1 1 1 1 1 1 1 1 1 1 1 0 0 0
4 4 4 4 4 3 3 3 3 3 3 2 2 2 2 2 2 2 2 2 2 1 1 1 1 1 1 1 1 1 1 1 1 1 1 1 1 1 1 0 0 0 0
4 4 3 3 3 3 3 2 2 2 2 2 2 2 2 2 1 1 1 1 1 1 1 1 1 1 1 0 1 1 1 0 0 0 0 0 0 0 0 -0 -0 -0 -0
Wind_Speed
6 6 6 5 4 5 4 4 3 3 3 3 2 2 2 1 1 1 0 1 1 1 1 1 1 1 1 1 1 1 1 0 1 2 1 1 1 1 0 1 2 3 3
5 5 5 5 4 4 4 4 4 4 3 3 3 2 2 2 1 1 1 2 2 2 2 1 1 1 0 0 1 1 1 1 1 2 2 1 1 1 1 2 2 2 3
5 5 5 5 5 5 4 3 4 3 3 3 3 3 2 2 1 1 1 1 1 1 1 1 1 0 0 0 1 1 1 1 0 1 2 2 2 2 1 2 2 1 2
5 5 5 5 4 4 4 3 3 3 3 3 2 2 2 1 1 0 1 1 1 2 1 0 0 0 0 1 1 1 1 1 1 1 2 2 2 2 1 1 2 2 2
5 5 4 4 4 3 3 3 3 3 3 3 2 2 2 2 1 0 1 1 1 2 1 1 1 1 2 1 1 1 1 1 1 1 2 2 2 2 2 2 2 2 2
5 5 4 4 4 3 3 2 2 3 2 2 2 2 2 1 1 0 1 1 2 1 1 1 0 1 2 2 3 2 1 1 1 1 2 2 3 2 2 2 1 1 2
4 4 4 4 3 3 3 2 3 3 2 2 2 3 3 2 2 1 1 2 2 2 1 1 1 0 1 1 2 3 3 3 3 3 3 3 3 3 2 3 2 2 3
4 3 4 4 3 3 3 2 2 2 2 2 2 2 3 2 3 2 2 2 2 2 1 1 1 1 1 1 1 1 2 3 3 3 3 4 3 2 3 3 4 3 3
3 3 3 4 4 4 4 3 3 2 2 2 3 3 3 3 3 2 1 2 2 2 1 1 1 1 2 2 1 2 2 4 5 5 6 5 6 6 4 2 2 2 3
2 3 3 4 4 4 4 3 2 2 3 3 3 3 3 3 3 3 2 1 2 2 1 1 0 1 2 2 1 2 3 4 4 3 4 5 4 5 6 3 3 2 3
2 2 2 3 4 4 3 2 2 2 2 3 3 3 3 3 3 4 3 2 2 2 1 1 1 2 2 3 3 3 4 5 3 3 2 2 2 2 3 3 3 2 3
2 1 2 2 3 3 3 3 3 3 3 3 3 2 2 2 3 3 3 3 2 1 2 1 1 2 3 4 4 5 6 5 2 2 2 2 2 3 3 3 3 3 4
2 1 2 2 2 2 2 3 3 3 3 2 2 2 2 2 2 3 3 2 2 2 2 2 3 4 3 3 4 5 4 2 2 2 2 3 3 3 2 2 2 3 4
2 1 2 2 2 2 1 1 2 2 2 2 1 1 1 1 1 1 1 1 2 2 2 3 4 4 3 3 3 3 3 2 2 2 3 3 2 2 2 2 2 2 2
1 1 1 2 2 2 1 1 1 1 2 2 2 1 1 1 1 1 1 1 1 1 1 1 1 1 1 2 2 2 2 2 2 3 3 3 3 3 3 2 2 2 2
0 0 1 1 1 2 2 1 2 2 2 3 3 3 2 1 1 1 2 3 2 2 1 2 2 2 2 2 3 2 2 2 2 3 3 2 2 3 3 2 1 1 2
0 0 0 1 1 2 2 2 2 0 0 0 1 3 3 2 1 2 3 3 3 2 2 2 2 2 2 3 2 2 2 2 2 2 2 2 2 2 2 2 2 2 2
1 1 1 0 0 1 2 2 2 2 1 1 1 3 3 3 2 2 2 1 2 2 2 2 2 2 2 2 2 2 2 2 2 2 2 2 2 2 2 2 3 3 3
1 1 1 1 0 1 1 2 2 2 2 1 0 0 1 1 1 2 1 2 2 2 2 2 2 2 2 2 2 2 2 2 2 2 2 2 2 2 3 3 3 4 3
1 2 1 1 0 1 1 1 1 2 2 2 1 1 1 1 1 1 2 2 2 2 2 2 2 2 2 2 2 2 2 2 2 2 2 2 2 2 3 3 3 3 3
1 1 2 1 1 1 1 2 2 2 2 2 2 2 3 2 2 2 2 2 2 2 2 2 2 1 1 1 1 2 3 2 2 2 2 2 2 2 2 3 3 3 3
1 1 2 2 1 1 1 2 1 1 1 1 1 1 2 2 2 2 2 1 1 1 1 1 1 1 1 1 1 2 2 2 2 2 2 2 2 3 3 3 3 3 3
1 1 1 1 1 1 1 1 1 1 1 2 1 1 1 2 2 1 1 1 1 1 1 1 1 1 1 1 1 1 2 2 2 3 3 2 3 3 2 3 3 3 3
1 1 1 1 1 1 1 1 2 2 2 2 1 1 2 2 2 2 1 1 2 2 1 1 1 2 2 1 1 1 1 2 3 3 3 3 3 3 3 3 3 4 4
1 1 1 1 1 1 2 2 2 2 2 2 2 2 2 2 2 2 2 2 2 2 2 1 1 2 3 3 2 1 2 3 3 3 3 3 4 4 3 3 3 4 4
1 1 1 1 1 2 2 2 2 2 2 2 2 2 2 2 2 2 1 1 2 2 2 2 3 3 4 3 3 2 2 3 3 4 3 3 4 3 3 3 4 4 4
Wind_Direction
171 170 169 171 167 166 164 166 160 155 160 159 161 156 149 149 143 133 194 246 257 269 273 262 294 340 353 344 343 324 327 31 271 294 295 270 291 305 19 266 247 193 192
168 164 168 170 169 169 171 172 170 169 167 161 155 157 168 167 174 190 236 255 246 243 262 259 258 280 302 351 345 303 290 264 212 277 283 279 262 248 241 253 253 234 199
162 163 170 175 176 181 185 183 177 174 169 167 166 173 184 184 184 201 239 251 264 259 251 238 253 246 269 292 278 297 302 316 234 251 278 276 270 261 282 280 262 257 252
162 168 175 178 181 184 184 181 177 178 186 180 162 165 176 135 85 358 324 306 300 301 296 277 275 117 294 314 312 315 335 340 316 291 278 284 283 275 272 271 289 281 277
164 170 175 172 167 170 178 181 180 185 189 167 153 161 139 125 101 358 310 295 291 300 319 359 15 43 18 352 340 333 354 332 319 305 291 303 300 305 283 268 255 271 275
170 171 165 162 155 160 177 184 169 166 165 156 157 143 129 142 135 55 324 285 280 276 290 307 298 74 30 8 9 4 336 285 276 281 288 282 288 289 303 297 277 286 283
165 152 149 151 154 161 170 165 160 164 162 160 156 147 154 169 160 160 310 294 272 259 249 253 292 344 49 22 349 350 333 304 277 241 246 261 274 283 295 300 290 264 256
153 148 147 154 152 156 160 163 169 176 172 169 165 168 165 182 174 175 287 276 270 257 231 218 208 201 284 305 270 287 285 293 276 262 244 252 257 260 263 270 271 270 269
147 154 162 163 166 168 173 178 180 179 178 182 176 181 177 182 176 186 214 259 268 269 280 287 204 205 300 322 281 275 290 292 279 269 263 260 261 264 268 290 299 300 280
148 162 167 165 169 179 179 174 170 179 188 187 190 187 182 178 188 189 192 226 252 270 279 301 319 294 307 321 282 268 278 284 291 289 286 278 269 266 261 241 237 262 265
131 158 163 165 166 169 165 164 166 178 191 196 193 191 185 178 187 184 195 217 236 244 251 259 293 326 311 304 297 277 282 291 275 268 267 271 271 269 268 252 239 233 245
115 137 162 163 161 162 164 171 172 175 188 201 190 189 177 164 159 185 204 230 271 249 253 248 264 297 304 294 289 289 300 309 292 278 277 276 274 272 273 262 262 263 253
123 149 165 156 143 146 168 176 177 181 188 197 188 189 186 162 158 170 186 234 282 270 257 266 273 274 292 280 277 287 294 296 282 274 269 268 266 270 277 284 289 299 305
152 162 146 148 150 153 158 172 175 190 189 189 190 198 188 148 130 145 196 234 262 273 277 280 281 270 268 271 286 285 265 259 261 259 265 264 274 285 281 271 275 283 291
184 173 144 153 158 150 130 120 169 153 176 179 184 176 168 193 227 249 223 232 226 235 291 284 274 280 266 269 267 260 256 260 265 268 272 277 277 278 277 270 267 269 268
215 154 130 124 152 149 147 114 68 117 124 142 152 163 172 180 211 246 271 275 276 282 273 250 253 246 251 258 261 267 261 263 267 263 261 268 277 281 288 294 286 253 257
207 179 181 171 162 176 171 167 164 96 78 209 184 179 184 192 206 249 274 276 277 261 241 246 253 254 260 264 267 269 269 275 284 279 275 277 279 290 299 301 301 281 265
147 139 151 175 183 192 181 182 180 180 182 266 265 219 207 204 214 237 259 283 268 240 229 244 258 271 280 282 283 284 287 294 296 292 292 293 289 286 288 292 288 281 273
155 156 167 172 204 240 197 199 195 188 178 179 155 160 198 192 225 253 236 228 242 245 252 255 262 277 284 282 280 279 275 277 286 282 276 273 272 271 273 281 286 284 279
159 160 155 150 177 262 224 200 199 189 189 188 191 183 158 167 222 235 229 240 246 252 254 263 266 274 285 284 286 286 274 265 274 280 283 277 272 264 264 273 278 276 273
165 173 193 206 213 228 230 217 207 199 198 196 198 183 169 193 224 230 225 230 237 246 252 258 265 275 291 307 302 296 290 285 286 285 284 281 276 276 272 271 277 274 277
185 180 193 211 216 229 231 216 200 192 208 216 213 198 204 215 234 240 235 239 248 250 252 271 274 271 278 282 284 295 301 298 295 293 290 290 289 285 280 273 274 272 273
204 209 208 209 208 232 243 216 198 203 220 221 210 191 203 227 246 247 244 249 257 255 251 250 259 273 277 286 290 263 280 290 300 303 295 284 278 273 269 269 272 274 271
228 221 220 206 201 212 228 225 217 220 227 230 223 210 216 226 239 245 245 249 246 254 251 249 247 256 275 294 305 302 331 326 322 316 304 280 272 268 261 261 264 264 263
237 234 226 215 221 226 234 233 225 228 237 235 225 221 225 231 238 245 249 250 259 262 258 255 260 258 261 264 275 269 284 296 304 307 302 282 266 263 258 255 259 264 263
241 241 244 225 229 232 235 237 233 232 240 238 229 226 228 234 241 243 243 249 257 262 263 254 254 259 260 262 260 253 270 274 283 292 290 272 259 253 250 252 257 257 257
Height
1509 1510 1512 1513 1515 1516 1517 1518 1519 1520 1521 1522 1522 1523 1523 1523 1523 1523 1523 1524 1524 1524 1524 1524 1524 1524 1523 1523 1523 1523 1524 1524 1523 1522 1522 1522 1521 1520 1519 1519 1518 1517 1517
1505 1507 1509 1510 1512 1513 1514 1515 1516 1517 1518 1519 1520 1520 1521 1521 1521 1521 1522 1522 1522 1522 1522 1522 1522 1522 1521 1521 1521 1521 1521 1521 1521 1520 1520 1519 1519 1518 1517 1517 1516 1516 1515
1502 1504 1505 1507 1509 1510 1511 1512 1513 1514 1515 1516 1517 1518 1518 1519 1519 1519 1520 1520 1520 1520 1520 1520 1519 1519 1519 1519 1519 1519 1519 1519 1519 1518 1517 1517 1517 1516 1515 1515 1515 1514 1513
1499 1501 1502 1504 1505 1507 1508 1509 1510 1511 1513 1513 1514 1515 1516 1516 1516 1517 1517 1517 1517 1517 1517 1517 1517 1517 1517 1517 1516 1516 1516 1516 1516 1515 1515 1514 1514 1514 1513 1512 1512 1512 1512
1497 1498 1499 1501 1502 1504 1505 1506 1507 1508 1509 1510 1511 1512 1513 1513 1514 1514 1514 1515 1515 1515 1514 1514 1514 1514 1514 1514 1514 1514 1513 1513 1512 1512 1512 1512 1511 1511 1510 1510 1510 1510 1509
1494 1495 1496 1497 1499 1500 1501 1503 1504 1505 1506 1507 1508 1509 1510 1510 1511 1511 1511 1511 1511 1511 1511 1511 1511 1511 1511 1511 1511 1511 1511 1510 1509 1509 1508 1508 1508 1508 1508 1508 1508 1507 1506
1491 1492 1493 1494 1496 1497 1498 1500 1501 1501 1503 1504 1505 1505 1506 1507 1507 1508 1508 1508 1508 1508 1508 1508 1508 1507 1508 1508 1507 1507 1507 1507 1507 1507 1505 1505 1505 1505 1505 1505 1505 1504 1504
1488 1489 1490 1491 1492 1494 1495 1496 1497 1498 1500 1500 1501 1502 1503 1504 1504 1505 1505 1505 1505 1505 1505 1505 1504 1504 1504 1504 1504 1503 1503 1503 1503 1503 1502 1501 1502 1502 1502 1502 1502 1502 1502
1484 1485 1487 1488 1489 1490 1491 1493 1494 1495 1496 1497 1498 1499 1500 1500 1501 1502 1502 1502 1502 1502 1502 1502 1502 1501 1501 1501 1500 1500 1499 1499 1499 1499 1498 1498 1498 1498 1499 1499 1498 1498 1497
1482 1483 1484 1485 1486 1487 1488 1490 1491 1492 1493 1494 1496 1496 1497 1497 1498 1498 1499 1499 1499 1499 1499 1499 1498 1498 1498 1498 1497 1496 1495 1495 1495 1494 1495 1494 1494 1494 1495 1495 1495 1495 1494
1480 1481 1481 1482 1483 1485 1486 1487 1488 1489 1491 1492 1493 1494 1494 1495 1495 1496 1496 1496 1496 1495 1495 1495 1495 1495 1495 1494 1494 1493 1492 1492 1491 1491 1491 1490 1490 1490 1491 1491 1491 1491 1491
1478 1478 1479 1480 1481 1482 1483 1484 1485 1486 1487 1489 1490 1490 1491 1492 1492 1492 1493 1493 1493 1492 1492 1492 1492 1492 1491 1491 1490 1490 1489 1489 1488 1487 1487 1486 1486 1486 1487 1487 1487 1488 1488
1475 1476 1476 1477 1478 1479 1480 1481 1482 1483 1484 1485 1486 1487 1488 1488 1489 1489 1489 1489 1489 1489 1489 1489 1489 1489 1488 1488 1487 1487 1486 1485 1484 1484 1483 1483 1483 1483 1484 1483 1483 1483 1483
1473 1474 1474 1475 1475 1476 1477 1478 1479 1480 1481 1482 1483 1483 1484 1485 1485 1485 1486 1486 1486 1486 1486 1486 1486 1485 1485 1484 1483 1483 1482 1482 1481 1480 1480 1480 1480 1480 1480 1479 1479 1479 1479
1471 1472 1472 1473 1473 1474 1474 1475 1476 1477 1478 1479 1479 1480 1481 1481 1481 1482 1482 1482 1482 1482 1482 1482 1481 1481 1480 1480 1480 1479 1479 1479 1478 1478 1477 1477 1477 1476 1476 1476 1475 1475 1475
1469 1470 1470 1470 1471 1471 1472 1473 1474 1475 1475 1476 1476 1477 1477 1478 1478 1478 1479 1479 1479 1478 1478 1478 1477 1477 1477 1476 1476 1476 1475 1475 1475 1474 1474 1473 1473 1472 1472 1472 1472 1472 1471
1466 1467 1467 1468 1468 1469 1469 1470 1471 1472 1473 1473 1473 1474 1474 1474 1474 1475 1475 1475 1475 1475 1474 1474 1474 1473 1473 1473 1473 1472 1472 1471 1471 1471 1470 1470 1469 1469 1469 1468 1468 1468 1467
1464 1464 1465 1465 1465 1466 1466 1467 1468 1468 1469 1469 1470 1470 1471 1471 1471 1471 1471 1471 1471 1471 1471 1470 1470 1470 1469 1469 1469 1468 1468 1467 1467 1466 1466 1466 1465 1465 1465 1464 1464 1464 1463
1461 1461 1462 1462 1463 1463 1464 1465 1465 1466 1466 1466 1467 1467 1467 1467 1467 1468 1468 1467 1467 1467 1467 1466 1466 1466 1465 1465 1465 1464 1464 1463 1463 1463 1462 1462 1461 1461 1461 1460 1460 1460 1460
1459 1459 1460 1460 1460 1461 1461 1462 1462 1463 1463 1463 1463 1463 1464 1464 1464 1464 1464 1463 1463 1463 1462 1462 1461 1461 1461 1460 1460 1460 1459 1459 1458 1458 1458 1457 1457 1457 1456 1456 1456 1456 1455
1456 1456 1457 1457 1458 1458 1458 1458 1459 1459 1459 1459 1460 1460 1460 1460 1460 1460 1459 1459 1459 1458 1458 1457 1457 1456 1456 1456 1456 1455 1455 1454 1454 1454 1453 1453 1453 1452 1452 1452 1452 1451 1451
1453 1453 1454 1454 1454 1454 1455 1455 1456 1456 1456 1456 1456 1457 1457 1456 1456 1456 1455 1455 1454 1454 1454 1453 1452 1452 1451 1451 1451 1451 1450 1450 1449 1449 1449 1449 1448 1448 1448 1448 1447 1447 1447
1450 1450 1450 1451 1451 1451 1451 1451 1452 1452 1452 1453 1453 1452 1452 1452 1452 1451 1451 1450 1450 1449 1449 1448 1448 1447 1447 1446 1446 1446 1445 1445 1445 1445 1444 1444 1443 1443 1443 1443 1443 1443 1443
1447 1447 1447 1447 1447 1447 1448 1448 1448 1448 1449 1449 1449 1448 1448 1447 1447 1447 1446 1446 1445 1444 1444 1443 1443 1442 1442 1441 1441 1441 1441 1440 1440 1440 1439 1439 1439 1438 1438 1438 1438 1438 1439
1443 1443 1443 1444 1444 1444 1444 1444 1444 1445 1445 1445 1444 1444 1444 1443 1443 1442 1442 1441 1440 1440 1439 1439 1438 1438 1437 1437 1436 1436 1436 1436 1435 1435 1435 1434 1434 1433 1433 1433 1434 1434 1434
1440 1440 1440 1440 1440 1440 1440 1440 1440 1440 1440 1440 1440 1440 1439 1439 1438 1437 1437 1436 1435 1435 1434 1434 1434 1433 1432 1432 1431 1431 1431 1431 1430 1430 1430 1429 1429 1428 1429 1429 1429 1429 1429